[[{"header":{"parameterUnit":"m.s-1","parameterCategory":1,"la1":30.2991,"la2":30.254,"lo1":-89.0895,"lo2":-89.0444,"dy":0.0017,"dx":0.0017,"nx":28,"ny":28,"refTime":"2023-06-26T21:00:00:Z","depth":0,"parameterNumber":2,"parameterNumberName":"U-component_of_WINDS"},"data":[0,0,0,0,0,0,0,0,0,0,0,0,0,0,0,0,0,0,0,0,0,0,0,0,0,0,0,0,0,0,0,0,0,0,0,0,0,0,0,0,0,0,0,0,0,0,0,0,0,0,0,0,0,0,0,0,0,0,1.277,1.277,0,1.2802,1.2803,1.2803,1.2719,1.2716,1.2714,1.2711,1.2752,1.2756,1.2759,0,0,0,0,0,0,0,0,0,0,0,0,0,1.2641,1.2644,1.2769,1.277,1.277,1.2802,1.2803,1.2803,1.272,1.2716,1.2713,1.271,1.2751,1.2755,1.276,0,0,0,0,0,0,0,0,0,0,0,0,0,1.2688,1.2645,1.2769,1.2732,1.2729,1.2802,1.2803,1.2803,1.272,1.2716,1.2712,1.2709,1.275,1.2755,1.276,1.2873,0,0,1.2777,1.2779,0,0,0,0,0,0,0,0,1.2685,1.2693,1.2737,1.2735,1.2732,1.2752,1.2772,1.2827,1.2721,1.2724,1.2711,1.2707,1.2756,1.2761,1.2776,1.2875,1.2877,1.2777,1.278,1.2783,1.2784,0,0,0,0,0,0,0,1.2682,1.2691,1.2783,1.2738,1.2735,1.2716,1.2718,1.2782,1.2762,1.2723,1.2717,1.2722,1.2754,1.2771,1.2776,1.2877,1.2777,1.2782,1.2785,1.2787,1.3072,1.3076,0,0,0,0,0,0,1.2683,1.2689,1.2782,1.2784,1.2698,1.2722,1.2724,1.275,1.2761,1.2759,1.2725,1.2718,1.2764,1.277,1.2777,1.2912,1.2783,1.2788,1.2791,1.3068,1.3073,1.3078,0,0,0,0,0,0,1.268,1.2692,1.278,1.2735,1.2744,1.2728,1.2758,1.2753,1.2769,1.2763,1.2759,1.2746,1.2761,1.277,1.285,1.2912,1.279,1.2795,1.3063,1.307,1.3076,1.318,0,0,0,0,0,0,1.2677,1.2691,1.2733,1.2736,1.2747,1.2851,1.2761,1.2756,1.2778,1.2769,1.2781,1.278,1.2758,1.2842,1.2855,1.2917,1.2799,1.3057,1.3066,1.3074,1.3171,1.3189,1.3205,0,0,0,0,0,1.2673,1.2762,1.2735,1.2747,1.2798,1.2854,1.2861,1.2833,1.2783,1.2826,1.2821,1.2779,1.2902,1.2851,1.2865,1.2929,1.3053,1.3063,1.3073,1.3164,1.3186,1.3205,0,0,0,0,0,0,1.277,1.2762,1.2732,1.2825,1.284,1.284,1.2893,1.2857,1.2889,1.2879,1.2845,1.2848,1.2936,1.294,1.2883,1.304,1.297,1.2983,1.3034,1.3055,1.3072,1.307,1.2804,0,0,0,0,0,1.2801,1.2845,1.2837,1.292,1.2929,1.2909,1.2933,1.2909,1.2925,1.2933,1.2934,1.2953,1.2996,1.3025,1.3064,1.317,1.3173,1.3222,1.3239,1.3253,1.3265,1.3324,1.3346,1.311,1.311,1.311,0,0,1.2868,1.2869,1.29,1.2939,1.2948,1.2997,1.2916,1.2971,1.3007,1.2942,1.3017,1.3019,1.3038,1.3132,1.3173,1.3138,1.3331,1.3265,1.3276,1.3281,1.3336,1.3359,1.3378,1.3117,1.3116,1.3115,0,0,1.3015,1.3019,1.3089,1.31,1.3114,1.31,1.3117,1.3122,1.312,1.3194,1.3146,1.319,1.3264,1.328,1.3298,1.345,1.3414,1.3464,1.3554,1.3612,1.363,1.3647,1.3703,1.3724,1.3476,1.3476,1.3477,0,1.3097,1.3166,1.313,1.3188,1.3208,1.3148,1.322,1.3232,1.326,1.3276,1.3236,1.3328,1.3336,1.3434,1.3471,1.3487,1.3507,1.3464,1.363,1.3646,1.3661,1.3715,1.3736,1.3483,1.3482,1.3481,1.3481,0,1.3268,1.3317,1.3372,1.3397,1.3423,1.3488,1.3464,1.3495,1.3469,1.346,1.3538,1.3545,1.3586,1.3606,1.3583,1.3702,1.3679,1.3635,1.3565,1.369,1.374,1.376,1.3492,1.3489,1.3487,1.3486,0,0,1.348,1.3483,1.3504,1.3515,1.3526,1.3564,1.3627,1.3664,1.3692,1.3713,1.3766,1.383,1.3789,1.3809,1.3786,1.3836,1.3959,1.3786,1.3786,1.382,1.4094,1.4129,1.4154,1.3933,1.3937,1.394,1.4093,0,1.3627,1.3732,1.3701,1.3808,1.3854,1.3796,1.3851,1.3865,1.3859,1.3899,1.3892,1.3939,1.3879,1.3891,1.3938,1.3935,1.4014,1.3923,1.3987,1.3989,1.3987,1.4179,1.4217,1.4361,1.4112,1.4115,1.4118,0,1.3813,1.3838,1.395,1.3953,1.3971,1.4021,1.4052,1.409,1.4105,1.4097,1.4119,1.4086,1.4151,1.4077,1.4167,1.4106,1.413,1.4132,1.4137,1.4144,1.4064,1.4195,1.4406,1.4429,1.4148,1.4145,1.4143,0,1.3959,1.4022,1.4096,1.4107,1.4112,1.4149,1.4153,1.4164,1.4188,1.4216,1.4232,1.4268,1.4289,1.4319,1.4298,1.4246,1.4392,1.4317,1.439,1.4391,1.4427,1.4425,1.4647,1.4437,1.4437,1.4436,1.4436,0,1.4129,1.42,1.4162,1.4209,1.4287,1.4251,1.433,1.4328,1.4338,1.4385,1.4337,1.4383,1.435,1.4394,1.4378,1.4456,1.4465,1.4463,1.4459,1.4469,1.447,1.4487,1.4478,1.4442,1.4441,1.444,1.4439,0,1.4307,1.4284,1.4362,1.4359,1.436,1.4419,1.4418,1.4462,1.4451,1.4511,1.4523,1.4507,1.4556,1.4536,1.4589,1.4578,1.4679,1.466,1.4673,1.467,1.4745,1.474,1.4989,1.5021,1.4787,1.479,1.4791,0,1.4418,1.4471,1.4473,1.45,1.4507,1.455,1.4574,1.4541,1.4568,1.4589,1.4632,1.4675,1.4709,1.479,1.4785,1.4825,1.4809,1.4893,1.4815,1.4824,1.4814,1.4812,1.4819,1.491,1.4913,1.4915,1.4917,0,1.4619,1.4604,1.4639,1.467,1.4699,1.4723,1.4743,1.4768,1.4735,1.4769,1.4817,1.4843,1.4895,1.494,1.4976,1.4983,1.4947,1.4941,1.4961,1.4974,1.4981,1.4981,1.472,1.4936,1.4934,1.4933,1.4932,1.4931,1.4769,1.4813,1.4822,1.4863,1.4873,1.4893,1.4934,1.4927,1.4965,1.5004,1.4982,1.5039,1.5053,1.5097,1.5109,1.5155,1.5122,1.515,1.5158,1.5166,1.5177,1.497,1.5161,1.516,1.516,1.5159,1.5159,0,1.4969,1.4971,1.5008,1.5036,1.5069,1.5027,1.5046,1.5078,1.5127,1.5142,1.5176,1.5232,1.5275,1.5273,1.5314,1.5351,1.5335,1.5363,1.5362,1.5365,1.5203,1.5183,1.5375,1.5375,1.5375,1.5375,1.5375,1.5375,1.5078,1.5152,1.5138,1.5218,1.522,1.5273,1.5288,1.5307,1.5319,1.5382,1.5417,1.5414,1.5423,1.5464,1.5503,1.5501,1.552,1.5555,1.5548,1.5397,1.5376,1.5356,1.5337,1.5559,1.5559,1.5707,1.5708,1.5709]},{"header":{"parameterUnit":"m.s-1","parameterCategory":1,"la1":30.2991,"la2":30.254,"lo1":-89.0895,"lo2":-89.0444,"dy":0.0017,"dx":0.0017,"nx":28,"ny":28,"refTime":"2023-06-26T21:00:00:Z","depth":0,"parameterNumber":3,"parameterNumberName":"V-component_of_WINDS"},"data":[0,0,0,0,0,0,0,0,0,0,0,0,0,0,0,0,0,0,0,0,0,0,0,0,0,0,0,0,0,0,0,0,0,0,0,0,0,0,0,0,0,0,0,0,0,0,0,0,0,0,0,0,0,0,0,0,0,0,0.6485,0.6485,0,0.6522,0.6522,0.6523,0.6496,0.6495,0.6493,0.6492,0.6533,0.6535,0.6537,0,0,0,0,0,0,0,0,0,0,0,0,0,0.6394,0.6396,0.6485,0.6485,0.6486,0.6522,0.6522,0.6523,0.6496,0.6494,0.6493,0.6492,0.6532,0.6534,0.6537,0,0,0,0,0,0,0,0,0,0,0,0,0,0.6432,0.6396,0.6485,0.6477,0.6476,0.6522,0.6522,0.6523,0.6496,0.6494,0.6493,0.6491,0.6531,0.6534,0.6537,0.6594,0,0,0.6547,0.6549,0,0,0,0,0,0,0,0,0.643,0.6436,0.6477,0.6477,0.6477,0.6502,0.6505,0.6547,0.6497,0.6489,0.6492,0.649,0.6524,0.6528,0.6539,0.6596,0.6597,0.6548,0.655,0.6551,0.6552,0,0,0,0,0,0,0,0.6428,0.6434,0.65,0.6478,0.6478,0.6472,0.6476,0.6513,0.6516,0.6489,0.6487,0.6492,0.6524,0.6536,0.654,0.6598,0.6548,0.6551,0.6553,0.6554,0.6704,0.6706,0,0,0,0,0,0,0.6425,0.6432,0.6499,0.6501,0.6449,0.6475,0.6479,0.6496,0.6516,0.6517,0.6494,0.6491,0.6531,0.6536,0.6541,0.6609,0.6551,0.6554,0.6556,0.6702,0.6705,0.6707,0,0,0,0,0,0,0.6423,0.6431,0.6497,0.6466,0.6474,0.6479,0.6498,0.6498,0.651,0.6519,0.652,0.6505,0.653,0.6536,0.6581,0.661,0.6556,0.6559,0.67,0.6703,0.6706,0.6746,0,0,0,0,0,0,0.6421,0.6431,0.6452,0.6467,0.6476,0.6536,0.65,0.65,0.6515,0.6512,0.653,0.6531,0.6529,0.6576,0.6584,0.6614,0.6561,0.6697,0.6701,0.6705,0.6742,0.675,0.6756,0,0,0,0,0,0.6418,0.6462,0.6453,0.6461,0.6502,0.6537,0.6543,0.6538,0.6518,0.6539,0.6545,0.6531,0.6605,0.6581,0.659,0.6621,0.6695,0.67,0.6705,0.6738,0.6748,0.6756,0,0,0,0,0,0,0.6451,0.6464,0.6454,0.6504,0.652,0.6533,0.656,0.6549,0.6571,0.6567,0.6562,0.6566,0.6613,0.6621,0.6594,0.6677,0.6647,0.6654,0.667,0.6679,0.6686,0.6684,0.6564,0,0,0,0,0,0.6464,0.6491,0.6501,0.6544,0.6553,0.6555,0.657,0.6566,0.6582,0.6589,0.6598,0.6616,0.6643,0.6661,0.6687,0.6742,0.6747,0.6768,0.6775,0.6781,0.6788,0.6819,0.6829,0.6722,0.6722,0.6722,0,0,0.6492,0.6502,0.6519,0.6551,0.6563,0.6592,0.6561,0.6593,0.6615,0.6594,0.6637,0.6645,0.6664,0.6714,0.6737,0.6722,0.6818,0.6787,0.6792,0.6795,0.6824,0.6834,0.6843,0.6725,0.6724,0.6724,0,0,0.6557,0.6567,0.6604,0.6617,0.6635,0.6636,0.6645,0.666,0.6664,0.6706,0.6692,0.6718,0.6765,0.678,0.6794,0.6865,0.6853,0.6874,0.6912,0.6943,0.6951,0.6958,0.6985,0.6995,0.6879,0.6879,0.6879,0,0.6589,0.6632,0.6625,0.6659,0.6674,0.6655,0.6694,0.6707,0.6733,0.6744,0.6727,0.6786,0.6798,0.6852,0.6869,0.6881,0.6892,0.6872,0.695,0.6958,0.6964,0.699,0.7,0.6882,0.6882,0.6881,0.6881,0,0.6671,0.6701,0.6729,0.6754,0.6772,0.6808,0.6808,0.6827,0.6821,0.6825,0.6869,0.6882,0.6911,0.6923,0.6918,0.6977,0.6968,0.6951,0.6921,0.6977,0.7001,0.7011,0.6885,0.6885,0.6884,0.6883,0,0,0.6759,0.6779,0.679,0.6801,0.682,0.6844,0.6879,0.6907,0.6924,0.6942,0.6973,0.7014,0.6998,0.7014,0.701,0.7036,0.7093,0.7016,0.7016,0.7031,0.7161,0.7175,0.7186,0.7085,0.7087,0.7088,0.716,0,0.6826,0.6887,0.6882,0.694,0.6969,0.6952,0.6983,0.6999,0.7003,0.7029,0.7033,0.7063,0.7039,0.7049,0.7074,0.7081,0.712,0.7076,0.7115,0.7116,0.7112,0.7198,0.7213,0.728,0.7169,0.7171,0.7172,0,0.6912,0.6933,0.6994,0.7009,0.7021,0.7049,0.7074,0.7098,0.7116,0.7117,0.7135,0.7127,0.7164,0.7132,0.7184,0.7155,0.717,0.7176,0.7179,0.7183,0.7148,0.7206,0.7301,0.7311,0.7186,0.7185,0.7184,0,0.6971,0.7015,0.7057,0.7067,0.7086,0.7106,0.7115,0.7131,0.7148,0.717,0.7181,0.7208,0.7222,0.7244,0.7243,0.722,0.7297,0.7265,0.73,0.73,0.7318,0.7317,0.7417,0.7326,0.7326,0.7326,0.7325,0,0.7047,0.7086,0.7084,0.711,0.7153,0.7148,0.7191,0.7197,0.7212,0.724,0.7227,0.7254,0.7251,0.7278,0.7278,0.7322,0.7329,0.7332,0.7332,0.7334,0.7334,0.7345,0.7341,0.7328,0.7328,0.7327,0.7327,0,0.7121,0.7121,0.7167,0.718,0.7185,0.7216,0.7228,0.7253,0.7256,0.7292,0.73,0.7306,0.7337,0.7339,0.7376,0.7376,0.7429,0.7423,0.7423,0.7423,0.7458,0.7455,0.757,0.7586,0.7483,0.7484,0.7485,0,0.717,0.7199,0.7215,0.7233,0.7243,0.7271,0.7288,0.7284,0.7303,0.7326,0.7349,0.7379,0.7403,0.7455,0.7463,0.7491,0.7487,0.7525,0.7491,0.7493,0.7489,0.7488,0.7491,0.7532,0.7533,0.7534,0.7535,0,0.7257,0.7256,0.728,0.7306,0.7327,0.7346,0.7365,0.738,0.7379,0.7401,0.7432,0.7451,0.7489,0.752,0.7547,0.7557,0.7547,0.7545,0.7555,0.7558,0.7558,0.756,0.7443,0.7543,0.7542,0.7542,0.7541,0.7541,0.7321,0.7346,0.7362,0.739,0.7403,0.7421,0.7446,0.7452,0.7478,0.7508,0.7504,0.754,0.7558,0.7594,0.7607,0.7636,0.7623,0.7637,0.764,0.7644,0.7649,0.7552,0.7641,0.764,0.764,0.764,0.764,0,0.7408,0.7417,0.7443,0.7469,0.7492,0.7479,0.7499,0.7519,0.7551,0.7568,0.7592,0.7629,0.7659,0.767,0.7699,0.772,0.7716,0.7728,0.7727,0.773,0.7658,0.7647,0.7731,0.7731,0.7731,0.7731,0.7731,0.7731,0.7456,0.7499,0.75,0.7549,0.7559,0.7593,0.7606,0.7623,0.7636,0.7679,0.7703,0.7709,0.7724,0.7755,0.7782,0.7785,0.7797,0.7811,0.7812,0.7744,0.7735,0.7726,0.7716,0.7814,0.7814,0.7882,0.7883,0.7883]}]]